DW9852 Weather Reports


Display with metric or nautical units.
time (UTC)temp
F
wind
direction
speed
MPH
gust
MPH
rain 1hr
in
rain 24hr
in
rain mn
in
humidity
%
barometer
mb
20260831040055 85 122 4.0 11.0 0.00 0.00 0.00 67 1017.0
20260831034553 86 96 4.0 13.0 0.00 0.00 0.00 66 1016.9
20260831033107 86 64 2.0 10.0 0.00 0.00 0.00 63 1016.7
20260831031548 87 0 2.0 6.0 0.00 0.00 0.00 63 1016.7
20260831030056 87 138 5.0 11.0 0.00 0.00 0.00 61 1016.4
20260831024552 88 172 4.0 11.0 0.00 0.00 0.00 61 1016.2
20260831023052 88 149 1.0 5.0 0.00 0.00 0.00 62 1015.8
20260831021548 89 91 3.0 12.0 0.00 0.00 0.00 61 1015.5
20260831020108 89 129 4.0 12.0 0.00 0.00 0.00 60 1015.2
20260831014553 90 123 4.0 11.0 0.00 0.00 0.00 60 1015.1
20260831013056 91 103 2.0 9.0 0.00 0.00 0.00 58 1014.9
20260831011547 91 241 3.0 13.0 0.00 0.00 0.00 56 1014.8
20260831010057 93 108 5.0 10.0 0.00 0.00 0.00 53 1014.5
20260831004557 94 81 1.0 6.0 0.00 0.00 0.00 49 1014.3
20260831003053 95 101 1.0 4.0 0.00 0.00 0.00 46 1014.0
20260831001549 96 244 0.0 5.0 0.00 0.00 0.00 45 1013.9
20260831000055 96 63 0.0 7.0 0.00 0.00 0.00 45 1014.1
20260830234551 96 0 0.0 4.0 0.00 0.00 0.00 45 1014.1
20260830233051 96 91 1.0 2.0 0.00 0.00 0.00 45 1014.2
20260830231554 96 193 3.0 7.0 0.00 0.00 0.00 45 1014.0
20260830230050 96 0 0.0 7.0 0.00 0.00 0.00 44 1014.2
20260830224556 96 179 1.0 7.0 0.00 0.00 0.00 45 1014.4
20260830223055 96 113 4.0 12.0 0.00 0.00 0.00 44 1014.4
20260830221553 96 82 1.0 6.0 0.00 0.00 0.00 47 1014.5
20260830220058 95 50 2.0 7.0 0.00 0.00 0.00 48 1014.4
20260830214548 95 52 3.0 7.0 0.00 0.00 0.00 48 1014.7
20260830213052 96 138 2.0 7.0 0.00 0.00 0.00 47 1014.8
20260830211559 96 71 2.0 8.0 0.00 0.00 0.00 48 1015.1
20260830210050 97 118 0.0 5.0 0.00 0.00 0.00 50 1015.3
20260830204555 95 192 1.0 8.0 0.00 0.00 0.00 50 1015.6
20260830203052 96 269 2.0 6.0 0.00 0.00 0.00 51 1015.8
20260830201551 95 124 3.0 7.0 0.00 0.00 0.00 49 1016.3
20260830200053 94 65 2.0 6.0 0.00 0.00 0.00 51 1016.6
20260830194552 92 134 1.0 6.0 0.00 0.00 0.00 54 1016.9
20260830193055 92 88 3.0 7.0 0.00 0.00 0.00 54 1017.1
20260830191559 92 41 2.0 6.0 0.00 0.00 0.00 56 1017.3
20260830184549 93 202 4.0 8.0 0.00 0.00 0.00 53 1017.8
20260830183052 92 120 0.0 7.0 0.00 0.00 0.00 55 1018.1
20260830181552 92 74 2.0 6.0 0.00 0.00 0.00 54 1018.3
20260830180100 91 0 0.0 1.0 0.00 0.00 0.00 59 1018.5
20260830174610 91 0 2.0 6.0 0.00 0.00 0.00 59 1018.7
20260830173116 90 0 0.0 5.0 0.00 0.00 0.00 62 1019.0
20260830171602 88 65 4.0 8.0 0.00 0.00 0.00 63 1019.1
20260830170051 89 252 0.0 4.0 0.00 0.00 0.00 66 1019.1
20260830164553 88 0 0.0 6.0 0.00 0.00 0.00 67 1019.2
20260830163059 87 0 0.0 4.0 0.00 0.00 0.00 68 1019.2
20260830161603 87 150 0.0 5.0 0.00 0.00 0.00 70 1019.2
20260830160101 86 60 0.0 5.0 0.00 0.00 0.00 74 1019.4
20260830154546 86 98 3.0 8.0 0.00 0.00 0.00 75 1019.4
20260830153054 85 0 1.0 6.0 0.00 0.00 0.00 78 1019.4
20260830151602 83 238 0.0 1.0 0.00 0.00 0.00 80 1019.5
20260830150059 83 0 0.0 7.0 0.00 0.00 0.00 80 1019.4
20260830144558 81 0 0.0 1.0 0.00 0.00 0.00 85 1019.4
20260830143053 82 0 0.0 2.0 0.00 0.00 0.00 85 1019.3
20260830141558 81 0 0.0 4.0 0.00 0.00 0.00 87 1019.3
20260830140105 0 0.0 0.0 0.00 0.00 0.00 1019.3
20260830134555 0 0.0 0.0 0.00 0.00 0.00 1019.3
20260830133052 0 0.0 0.0 0.00 0.00 0.00 1019.1
20260830131603 0 0.0 0.0 0.00 0.00 0.00 1018.9
20260830130059 0 0.0 0.0 0.00 0.00 0.00 1018.8
20260830124552 0 0.0 0.0 0.00 0.00 0.00 1018.7
20260830123049 0 0.0 0.0 0.00 0.00 0.00 1018.5
20260830121554 0 0.0 0.0 0.00 0.00 0.00 1018.6
20260830120053 0 0.0 0.0 0.00 0.00 0.00 1018.5
20260830114557 0 0.0 0.0 0.00 0.00 0.00 1018.4
20260830113058 0 0.0 0.0 0.00 0.00 0.00 1018.4
20260830111554 0 0.0 0.0 0.00 0.00 0.00 1018.4
20260830110051 0 0.0 0.0 0.00 0.00 0.00 1018.3
20260830104550 0 0.0 0.0 0.00 0.00 0.00 1018.3
20260830103056 0 0.0 0.0 0.00 0.00 0.00 1018.3
20260830101556 0 0.0 0.0 0.00 0.00 0.00 1018.4
20260830100052 0 0.0 0.0 0.00 0.00 0.00 1018.2
20260830094558 0 0.0 0.0 0.00 0.00 0.00 1018.3
20260830093052 0 0.0 0.0 0.00 0.00 0.00 1018.3
20260830091553 0 0.0 0.0 0.00 0.00 0.00 1018.4
20260830090052 78 0 0.0 2.0 0.00 0.00 0.00 88 1018.3
20260830084552 77 0 0.0 0.0 0.00 0.00 0.00 87 1018.3
20260830083053 77 0 0.0 0.0 0.00 0.00 0.00 87 1018.2
20260830081554 78 0 0.0 0.0 0.00 0.00 0.00 86 1018.5
20260830080058 78 0 0.0 1.0 0.00 0.00 0.00 85 1018.5
20260830074555 78 0 0.0 1.0 0.00 0.00 0.00 84 1018.4
20260830073051 79 0 0.0 1.0 0.00 0.00 0.00 83 1018.4
20260830071547 79 0 0.0 4.0 0.00 0.00 0.00 82 1018.6
20260830070055 79 0 0.0 2.0 0.00 0.00 0.00 81 1018.6
20260830064606 80 134 0.0 4.0 0.00 0.00 0.00 79 1018.4
20260830063051 80 0 1.0 4.0 0.00 0.00 0.00 78 1018.4
20260830061549 81 0 2.0 8.0 0.00 0.00 0.00 77 1018.5
20260830054552 82 0 2.0 6.0 0.00 0.00 0.00 72 1018.4
20260830053052 82 0 2.0 7.0 0.00 0.00 0.00 72 1018.4
20260830051549 83 136 2.0 6.0 0.00 0.00 0.00 71 1018.3
20260830050045 83 127 2.0 6.0 0.00 0.00 0.00 70 1018.3
20260830044604 84 0 0.0 5.0 0.00 0.00 0.00 69 1018.3
20260830043052 84 178 2.0 8.0 0.00 0.00 0.00 68 1018.4
20260830041555 85 165 1.0 5.0 0.00 0.00 0.00 67 1018.2